FIN7TP EFOU-EFHK

Flight info

Callsign FIN7TP
Flight time 1h 1m
Altitude 31000
Route MIKNU Y86 LUSEP
Aircraft A320/M-SDE3FGHIRWY/LB1

Departure

Time 2026-04-30 19:55
Airport Oulu Airport (EFOU)

Arrival

Time 2026-04-30 20:56
Airport Helsinki Vantaa Airport (EFHK)
Time Latitude Longitude Altitude Speed Heading
2026-04-30 19:17 64.92799 25.37355 51 ft 0 kts 31°
2026-04-30 19:47 64.92781 25.37328 50 ft 4 kts 36°
2026-04-30 19:47 64.92767 25.37302 47 ft 4 kts 45°
2026-04-30 19:47 64.92750 25.37236 48 ft 4 kts 101°
2026-04-30 19:47 64.92752 25.37218 45 ft 0 kts 121°
2026-04-30 19:51 64.92720 25.37343 49 ft 18 kts 121°
2026-04-30 19:51 64.92646 25.37633 48 ft 24 kts 120°
2026-04-30 19:51 64.92551 25.37919 51 ft 18 kts 155°
2026-04-30 19:51 64.92504 25.37902 50 ft 0 kts 216°
2026-04-30 19:53 64.92503 25.37900 50 ft 1 kts 217°
2026-04-30 19:54 64.92493 25.37876 47 ft 5 kts 230°
2026-04-30 19:54 64.92466 25.37658 46 ft 22 kts 269°
2026-04-30 19:54 64.92519 25.37382 47 ft 0 kts 302°
2026-04-30 19:54 64.92543 25.37295 49 ft 34 kts 304°
2026-04-30 19:55 64.92884 25.35894 50 ft 156 kts 300°
2026-04-30 19:55 64.93572 25.33200 448 ft 214 kts 300°
2026-04-30 19:55 64.94411 25.29881 1294 ft 256 kts 299°
2026-04-30 19:55 64.95338 25.26023 2279 ft 275 kts 299°
2026-04-30 19:56 64.95994 25.22327 3098 ft 222 kts 281°
2026-04-30 19:56 64.95862 25.18863 3770 ft 226 kts 252°
2026-04-30 19:56 64.94917 25.15543 4222 ft 264 kts 225°
2026-04-30 19:56 64.93325 25.13342 4098 ft 268 kts 205°
2026-04-30 19:57 64.91570 25.11831 4030 ft 269 kts 198°
2026-04-30 19:57 64.89702 25.11609 4023 ft 273 kts 174°
2026-04-30 19:57 64.87846 25.12609 4022 ft 275 kts 163°
2026-04-30 19:57 64.86043 25.14130 4019 ft 275 kts 162°
2026-04-30 19:58 64.84218 25.15486 4021 ft 275 kts 164°
2026-04-30 19:58 64.82402 25.16735 4025 ft 275 kts 165°
2026-04-30 19:58 64.80567 25.17978 4023 ft 275 kts 165°
2026-04-30 19:58 64.78715 25.19252 4188 ft 282 kts 165°
2026-04-30 19:59 64.76806 25.20586 5417 ft 284 kts 164°
2026-04-30 19:59 64.74907 25.21938 6848 ft 288 kts 164°
2026-04-30 19:59 64.70963 25.24774 9193 ft 305 kts 163°
2026-04-30 20:00 64.68898 25.26262 10331 ft 315 kts 163°
2026-04-30 20:00 64.66719 25.27831 10977 ft 340 kts 163°
2026-04-30 20:00 64.64370 25.29514 11547 ft 366 kts 163°
2026-04-30 20:00 64.61857 25.31304 12042 ft 390 kts 163°
2026-04-30 20:01 64.56374 25.35212 13172 ft 425 kts 163°
2026-04-30 20:01 64.53515 25.37250 14008 ft 433 kts 163°
2026-04-30 20:01 64.50648 25.39286 14759 ft 440 kts 163°
2026-04-30 20:02 64.44655 25.42994 16322 ft 450 kts 173°
2026-04-30 20:02 64.41530 25.43569 17085 ft 453 kts 182°
2026-04-30 20:03 64.35169 25.43203 18519 ft 462 kts 185°
2026-04-30 20:03 64.31934 25.43005 19121 ft 467 kts 185°
2026-04-30 20:03 64.28664 25.42818 19756 ft 472 kts 184°
2026-04-30 20:03 64.25360 25.42645 20289 ft 478 kts 184°
2026-04-30 20:04 64.22016 25.42474 20834 ft 482 kts 184°
2026-04-30 20:04 64.18647 25.42299 21373 ft 486 kts 184°
2026-04-30 20:04 64.15252 25.42121 21900 ft 490 kts 184°
2026-04-30 20:05 64.08428 25.41758 22892 ft 497 kts 184°
2026-04-30 20:05 64.04958 25.41575 23366 ft 501 kts 184°
2026-04-30 20:05 63.97945 25.41205 24173 ft 507 kts 184°
2026-04-30 20:06 63.94399 25.41017 24542 ft 510 kts 184°
2026-04-30 20:06 63.90842 25.40833 24899 ft 512 kts 184°
2026-04-30 20:06 63.87270 25.40650 25240 ft 515 kts 184°
2026-04-30 20:06 63.84896 25.40529 25450 ft 516 kts 184°
2026-04-30 20:07 63.81303 25.40343 25767 ft 518 kts 184°
2026-04-30 20:07 63.77687 25.40150 26057 ft 521 kts 184°
2026-04-30 20:07 63.70408 25.39775 26561 ft 524 kts 184°
2026-04-30 20:08 63.66757 25.39581 26746 ft 526 kts 184°
2026-04-30 20:08 63.63098 25.39382 26952 ft 527 kts 184°
2026-04-30 20:08 63.59422 25.39183 27169 ft 527 kts 184°
2026-04-30 20:08 63.55753 25.38987 27441 ft 527 kts 184°
2026-04-30 20:09 63.52085 25.38798 27711 ft 528 kts 184°
2026-04-30 20:09 63.48403 25.38613 27936 ft 529 kts 184°
2026-04-30 20:09 63.41036 25.38256 28496 ft 529 kts 184°
2026-04-30 20:10 63.33711 25.37890 29067 ft 529 kts 184°
2026-04-30 20:10 63.30034 25.37702 29389 ft 528 kts 184°
2026-04-30 20:10 63.26369 25.37512 29709 ft 527 kts 184°
2026-04-30 20:11 63.19027 25.37127 30380 ft 526 kts 184°
2026-04-30 20:11 63.15367 25.36941 30672 ft 526 kts 184°
2026-04-30 20:11 63.11697 25.36761 30967 ft 526 kts 184°
2026-04-30 20:12 63.04379 25.36394 31199 ft 525 kts 184°
2026-04-30 20:12 63.00719 25.36205 31174 ft 525 kts 184°
2026-04-30 20:13 62.93443 25.35821 31193 ft 525 kts 183°
2026-04-30 20:13 62.86136 25.35460 31194 ft 525 kts 183°
2026-04-30 20:14 62.78824 25.35118 31217 ft 526 kts 183°
2026-04-30 20:14 62.71478 25.34748 31180 ft 528 kts 183°
2026-04-30 20:15 62.64127 25.34375 31157 ft 529 kts 183°
2026-04-30 20:15 62.56760 25.34003 31157 ft 529 kts 183°
2026-04-30 20:16 62.49448 25.33644 31161 ft 529 kts 183°
2026-04-30 20:16 62.42077 25.33298 31165 ft 529 kts 183°
2026-04-30 20:17 62.34715 25.32955 31170 ft 529 kts 183°
2026-04-30 20:17 62.27344 25.32608 31176 ft 529 kts 183°
2026-04-30 20:18 62.19974 25.32267 31183 ft 529 kts 183°
2026-04-30 20:18 62.12611 25.31907 31190 ft 529 kts 183°
2026-04-30 20:19 62.05242 25.31547 31221 ft 530 kts 182°
2026-04-30 20:19 61.97898 25.31187 31167 ft 531 kts 182°
2026-04-30 20:20 61.90500 25.30828 31166 ft 532 kts 182°
2026-04-30 20:20 61.83086 25.30491 31174 ft 533 kts 182°
2026-04-30 20:21 61.75660 25.30152 31172 ft 533 kts 182°
2026-04-30 20:21 61.68240 25.29869 30850 ft 533 kts 182°
2026-04-30 20:21 61.64519 25.29790 30603 ft 533 kts 181°
2026-04-30 20:22 61.60804 25.29729 30360 ft 534 kts 181°
2026-04-30 20:22 61.57091 25.29669 30093 ft 534 kts 181°
2026-04-30 20:22 61.53374 25.29598 29806 ft 534 kts 181°
2026-04-30 20:22 61.49647 25.29516 29516 ft 535 kts 182°
2026-04-30 20:23 61.45929 25.29431 29185 ft 534 kts 182°
2026-04-30 20:23 61.42225 25.29343 27898 ft 531 kts 182°
2026-04-30 20:23 61.38584 25.29258 26444 ft 529 kts 182°
2026-04-30 20:23 61.34910 25.29177 25074 ft 526 kts 181°
2026-04-30 20:24 61.31256 25.29095 23749 ft 523 kts 181°
2026-04-30 20:24 61.27624 25.29016 22235 ft 521 kts 181°
2026-04-30 20:24 61.24013 25.28934 20803 ft 517 kts 181°
2026-04-30 20:24 61.20428 25.28846 19653 ft 510 kts 181°
2026-04-30 20:25 61.13511 25.28686 16892 ft 487 kts 181°
2026-04-30 20:25 61.10145 25.28609 15622 ft 487 kts 181°
2026-04-30 20:26 61.03438 25.28457 14951 ft 476 kts 181°
2026-04-30 20:26 60.97083 25.28307 13652 ft 426 kts 180°
2026-04-30 20:26 60.94236 25.28242 13130 ft 393 kts 180°
2026-04-30 20:27 60.89020 25.28121 12688 ft 398 kts 181°
2026-04-30 20:27 60.82824 25.27983 13047 ft 466 kts 180°
2026-04-30 20:28 60.76360 25.27839 14921 ft 483 kts 181°
2026-04-30 20:28 60.69672 25.27725 15160 ft 477 kts 180°
2026-04-30 20:29 60.63379 25.27654 14703 ft 434 kts 180°
2026-04-30 20:30 60.55433 25.23672 14252 ft 366 kts 226°
2026-04-30 20:30 60.51833 25.11401 13228 ft 330 kts 251°
2026-04-30 20:31 60.48825 24.98947 11755 ft 324 kts 250°
2026-04-30 20:32 60.43446 24.91408 10340 ft 337 kts 181°
2026-04-30 20:32 60.38929 24.91748 10129 ft 302 kts 192°
2026-04-30 20:33 60.36955 24.90925 10228 ft 283 kts 193°
2026-04-30 20:33 60.33098 24.89787 9710 ft 274 kts 185°
2026-04-30 20:33 60.31236 24.89574 9594 ft 263 kts 184°
2026-04-30 20:34 60.27636 24.89012 9076 ft 256 kts 185°
2026-04-30 20:34 60.24108 24.88412 8477 ft 253 kts 185°
2026-04-30 20:35 60.22360 24.88114 8184 ft 251 kts 185°
2026-04-30 20:35 60.20626 24.87820 7892 ft 249 kts 185°
2026-04-30 20:35 60.17209 24.87652 7315 ft 243 kts 161°
2026-04-30 20:36 60.15814 24.89381 7194 ft 234 kts 126°
2026-04-30 20:36 60.15144 24.92222 7193 ft 223 kts 91°
2026-04-30 20:36 60.16227 24.97469 7200 ft 206 kts 45°
2026-04-30 20:37 60.17143 24.99687 7195 ft 206 kts 45°
2026-04-30 20:37 60.18058 25.01912 7194 ft 206 kts 45°
2026-04-30 20:37 60.18974 25.04134 7193 ft 206 kts 45°
2026-04-30 20:37 60.19881 25.06331 7193 ft 206 kts 45°
2026-04-30 20:38 60.20799 25.08553 7193 ft 206 kts 45°
2026-04-30 20:38 60.21715 25.10772 7193 ft 206 kts 45°
2026-04-30 20:38 60.22634 25.13000 7193 ft 207 kts 45°
2026-04-30 20:39 60.24656 25.16993 7195 ft 202 kts 30°
2026-04-30 20:39 60.25816 25.18586 7193 ft 202 kts 31°
2026-04-30 20:39 60.26979 25.20196 7192 ft 203 kts 31°
2026-04-30 20:40 60.29298 25.23423 7190 ft 202 kts 31°
2026-04-30 20:40 60.30444 25.25021 7193 ft 202 kts 31°
2026-04-30 20:40 60.31602 25.26633 7191 ft 202 kts 31°
2026-04-30 20:41 60.33905 25.29829 7193 ft 202 kts 31°
2026-04-30 20:41 60.35065 25.31443 7188 ft 202 kts 31°
2026-04-30 20:41 60.36223 25.33057 7187 ft 202 kts 31°
2026-04-30 20:41 60.37377 25.34668 7188 ft 202 kts 31°
2026-04-30 20:42 60.38535 25.36284 7185 ft 202 kts 31°
2026-04-30 20:42 60.39692 25.37900 7201 ft 202 kts 31°
2026-04-30 20:42 60.41807 25.41627 7192 ft 212 kts 63°
2026-04-30 20:43 60.41823 25.44644 7190 ft 228 kts 106°
2026-04-30 20:43 60.40785 25.47113 7190 ft 240 kts 149°
2026-04-30 20:43 60.39160 25.47734 7193 ft 242 kts 189°
2026-04-30 20:44 60.36225 25.44664 7190 ft 239 kts 218°
2026-04-30 20:44 60.34878 25.42763 7190 ft 239 kts 219°
2026-04-30 20:44 60.32268 25.38677 7178 ft 233 kts 240°
2026-04-30 20:45 60.32313 25.32969 7181 ft 205 kts 313°
2026-04-30 20:45 60.33440 25.31365 7183 ft 198 kts 345°
2026-04-30 20:45 60.34794 25.31307 7184 ft 198 kts 15°
2026-04-30 20:46 60.38299 25.35908 7185 ft 201 kts 31°
2026-04-30 20:46 60.39438 25.37521 6906 ft 200 kts 32°
2026-04-30 20:47 60.41141 25.41903 6192 ft 211 kts 70°
2026-04-30 20:47 60.41623 25.44694 5813 ft 209 kts 62°
2026-04-30 20:48 60.43148 25.49479 5108 ft 198 kts 26°
2026-04-30 20:48 60.44451 25.50243 4732 ft 195 kts
2026-04-30 20:48 60.45801 25.50562 4391 ft 195 kts
2026-04-30 20:48 60.47147 25.50796 4051 ft 193 kts 359°
2026-04-30 20:49 60.48430 25.50154 3731 ft 192 kts 327°
2026-04-30 20:49 60.49201 25.48058 3598 ft 188 kts 289°
2026-04-30 20:49 60.49183 25.45424 3432 ft 189 kts 259°
2026-04-30 20:50 60.48076 25.40646 3184 ft 184 kts 248°
2026-04-30 20:50 60.47507 25.38331 3189 ft 183 kts 248°
2026-04-30 20:50 60.46939 25.36026 3187 ft 183 kts 248°
2026-04-30 20:50 60.46370 25.33720 3187 ft 183 kts 248°
2026-04-30 20:51 60.45992 25.32193 3188 ft 183 kts 248°
2026-04-30 20:51 60.44895 25.27788 3091 ft 169 kts 249°
2026-04-30 20:51 60.44366 25.25655 2789 ft 170 kts 249°
2026-04-30 20:52 60.43837 25.23513 2481 ft 170 kts 249°
2026-04-30 20:52 60.43309 25.21380 2242 ft 168 kts 249°
2026-04-30 20:52 60.41923 25.17517 2200 ft 173 kts 232°
2026-04-30 20:53 60.41114 25.15719 2199 ft 171 kts 232°
2026-04-30 20:53 60.40334 25.13996 2014 ft 163 kts 231°
2026-04-30 20:53 60.39573 25.12315 1622 ft 161 kts 232°
2026-04-30 20:54 60.38105 25.09062 1181 ft 156 kts 233°
2026-04-30 20:54 60.37369 25.07428 1181 ft 157 kts 233°
2026-04-30 20:54 60.36614 25.05748 1113 ft 163 kts 233°
2026-04-30 20:55 60.35243 25.02724 899 ft 134 kts 234°
2026-04-30 20:55 60.34638 25.01347 675 ft 129 kts 232°
2026-04-30 20:55 60.34050 25.00049 480 ft 123 kts 231°
2026-04-30 20:56 60.32949 24.97641 208 ft 109 kts 231°
2026-04-30 20:56 60.32497 24.96631 176 ft 87 kts 232°
2026-04-30 20:56 60.31963 24.95658 173 ft 27 kts 188°
2026-04-30 20:57 60.31842 24.95591 170 ft 19 kts 174°
2026-04-30 20:57 60.31816 24.95617 170 ft 0 kts 134°
2026-04-30 20:58 60.31813 24.95626 171 ft 5 kts 128°
2026-04-30 20:58 60.31849 24.95784 169 ft 21 kts 45°
2026-04-30 20:58 60.31922 24.96046 168 ft 21 kts 112°
2026-04-30 20:58 60.31851 24.96230 167 ft 17 kts 99°
2026-04-30 20:59 60.31923 24.96591 167 ft 11 kts 133°
2026-04-30 20:59 60.31906 24.96620 167 ft 0 kts 139°
2026-04-30 21:01 60.31906 24.96621 167 ft 1 kts 139°
2026-04-30 21:01 60.31904 24.96624 167 ft 0 kts 140°